Powrót do katalogu

STARLINK-35455

AktywnyŁącznośćVLEO
NORAD 66152·PAYLOAD·🇺🇸 United States

Wystrzelony Oct 25, 2025 z Cape Canaveral Space Force Station

Loading…

Następne Przeloty (najbliższe 24 godziny)

TLE

ŚwieżeSource: CelesTrak SupGP

Epoka: Sep 14, 2026, 23:11 UTC

1 66152C 25240G   26257.96645833  .00040501  00000+0  11965-2 0  2579
2 66152  53.1576 259.5111 0001285  89.8808 351.0463 15.34373240    15

Śledź STARLINK-35455 w czasie rzeczywistym z AllMySat

Download on the App Store